When you browse on this site, cookies collect data to enhance your experience and personalize the content and advertising you see.
Visit our Privacy Policy to learn more. By continuing to use the site, you agree to this use of cookies and data.
  • In United Kingdom
  • List of Countries
  • For 7 days
  • Water Temperature
  • Satellite Maps
  • Weather Map
  • Weather Widgets
  • user-avatar
    Login

    Hourly Weather Shora

    Today, 26 March, Tuesday

    Time Temperature Precipitation Wind Pressure Humidity
    00:00 +18°C° 0 mm 2 mps 733 mmHg 28%
    01:00 +17°C° 0 mm 2 mps 734 mmHg 31%
    02:00 +17°C° 0 mm 2 mps 734 mmHg 34%
    03:00 +16°C° 0 mm 2 mps 734 mmHg 35%
    04:00 +16°C° 0 mm 2 mps 733 mmHg 36%
    05:00 +16°C° 0 mm 3 mps 732 mmHg 35%
    06:00 +16°C° 0 mm 2 mps 732 mmHg 34%
    07:00 +16°C° 0 mm 2 mps 732 mmHg 32%
    08:00 +17°C° 0 mm 2 mps 732 mmHg 31%
    09:00 +19°C° 0 mm 3 mps 732 mmHg 26%
    10:00 +20°C° 0 mm 4 mps 732 mmHg 22%
    11:00 +22°C° 0 mm 5 mps 731 mmHg 18%
    12:00 +23°C° 0 mm 5 mps 731 mmHg 16%
    13:00 +26°C° 0 mm 5 mps 730 mmHg 14%
    14:00 +27°C° 0 mm 5 mps 730 mmHg 13%
    15:00 +27°C° 0 mm 4 mps 730 mmHg 12%
    16:00 +27°C° 0 mm 3 mps 730 mmHg 12%
    17:00 +27°C° 0 mm 3 mps 730 mmHg 12%
    18:00 +26°C° 0 mm 2 mps 730 mmHg 13%
    19:00 +25°C° 0 mm 2 mps 730 mmHg 14%
    20:00 +24°C° 0 mm 1 mps 730 mmHg 16%
    21:00 +23°C° 0 mm 1 mps 730 mmHg 16%
    22:00 +23°C° 0 mm 2 mps 730 mmHg 17%
    23:00 +23°C° 0 mm 2 mps 730 mmHg 18%

    Tomorrow, 27 March, Wednesday

    Time Temperature Precipitation Wind Pressure Humidity
    00:00 +21°C° 0 mm 2 mps 730 mmHg 19%
    01:00 +21°C° 0 mm 2 mps 730 mmHg 20%
    02:00 +20°C° 0 mm 2 mps 730 mmHg 21%
    03:00 +20°C° 0 mm 2 mps 730 mmHg 22%
    04:00 +20°C° 0 mm 2 mps 730 mmHg 23%
    05:00 +19°C° 0 mm 2 mps 730 mmHg 25%
    06:00 +19°C° 0.1 mm 2 mps 730 mmHg 26%
    07:00 +19°C° 0.1 mm 2 mps 730 mmHg 28%
    08:00 +20°C° 0.1 mm 1 mps 730 mmHg 30%
    09:00 +20°C° 0.1 mm 2 mps 730 mmHg 29%
    10:00 +21°C° 0.1 mm 3 mps 729 mmHg 28%
    11:00 +22°C° 0.1 mm 3 mps 729 mmHg 26%
    12:00 +23°C° 0 mm 2 mps 729 mmHg 25%
    13:00 +24°C° 0 mm 2 mps 728 mmHg 24%
    14:00 +25°C° 0 mm 1 mps 728 mmHg 23%
    15:00 +25°C° 0 mm 1 mps 728 mmHg 24%
    16:00 +25°C° 0 mm 1 mps 728 mmHg 25%
    17:00 +25°C° 0 mm 1 mps 728 mmHg 26%
    18:00 +23°C° 0.4 mm 2 mps 729 mmHg 32%
    19:00 +21°C° 0.4 mm 3 mps 729 mmHg 38%
    20:00 +20°C° 0.4 mm 3 mps 729 mmHg 44%
    21:00 +20°C° 0.4 mm 3 mps 729 mmHg 46%
    22:00 +19°C° 0.4 mm 2 mps 729 mmHg 48%
    23:00 +20°C° 0.4 mm 1 mps 729 mmHg 50%

    Day after tomorrow, 28 March, Thursday

    Time Temperature Precipitation Wind Pressure Humidity
    00:00 +19°C° 0.4 mm 1 mps 729 mmHg 54%
    01:00 +18°C° 0.4 mm 2 mps 729 mmHg 59%
    02:00 +17°C° 0.4 mm 2 mps 729 mmHg 63%
    03:00 +17°C° 0.4 mm 2 mps 729 mmHg 64%
    04:00 +17°C° 0.4 mm 2 mps 729 mmHg 65%
    05:00 +18°C° 0.4 mm 1 mps 729 mmHg 65%
    06:00 +17°C° 0 mm 2 mps 729 mmHg 65%
    07:00 +18°C° 0 mm 2 mps 730 mmHg 64%
    08:00 +18°C° 0 mm 2 mps 730 mmHg 63%
    09:00 +19°C° 0 mm 2 mps 730 mmHg 60%
    10:00 +20°C° 0 mm 3 mps 731 mmHg 57%
    11:00 +20°C° 0 mm 3 mps 731 mmHg 54%
    12:00 +21°C° 0 mm 3 mps 731 mmHg 51%
    13:00 +23°C° 0 mm 2 mps 731 mmHg 48%
    14:00 +24°C° 0 mm 2 mps 731 mmHg 44%
    15:00 +24°C° 0 mm 2 mps 731 mmHg 43%
    16:00 +25°C° 0 mm 2 mps 731 mmHg 41%
    17:00 +25°C° 0 mm 2 mps 731 mmHg 40%
    18:00 +24°C° 0 mm 1 mps 731 mmHg 43%
    19:00 +23°C° 0 mm 1 mps 731 mmHg 46%
    20:00 +20°C° 0 mm 0 mps 731 mmHg 49%
    21:00 +20°C° 0 mm 0 mps 731 mmHg 51%
    22:00 +19°C° 0 mm 0 mps 731 mmHg 53%
    23:00 +19°C° 0 mm 0 mps 730 mmHg 55%

    29 March, Friday

    Time Temperature Precipitation Wind Pressure Humidity
    00:00 +18°C° 0 mm 0 mps 730 mmHg 57%
    01:00 +18°C° 0 mm 0 mps 729 mmHg 58%
    02:00 +17°C° 0 mm 0 mps 729 mmHg 60%
    03:00 +17°C° 0 mm 0 mps 728 mmHg 60%
    04:00 +19°C° 0 mm 1 mps 728 mmHg 60%
    05:00 +19°C° 0 mm 1 mps 727 mmHg 61%
    06:00 +18°C° 0 mm 2 mps 727 mmHg 59%
    07:00 +19°C° 0 mm 4 mps 727 mmHg 58%
    08:00 +19°C° 0 mm 5 mps 727 mmHg 57%
    09:00 +20°C° 0 mm 5 mps 727 mmHg 53%
    10:00 +21°C° 0 mm 6 mps 727 mmHg 49%
    11:00 +23°C° 0 mm 6 mps 727 mmHg 45%
    12:00 +23°C° 0 mm 6 mps 727 mmHg 44%
    13:00 +23°C° 0 mm 7 mps 726 mmHg 43%
    14:00 +23°C° 0 mm 8 mps 726 mmHg 42%
    15:00 +23°C° 0 mm 8 mps 727 mmHg 46%
    16:00 +22°C° 0 mm 8 mps 727 mmHg 50%
    17:00 +21°C° 0 mm 9 mps 727 mmHg 53%
    18:00 +20°C° 0 mm 8 mps 727 mmHg 56%
    19:00 +18°C° 0 mm 8 mps 728 mmHg 58%
    20:00 +18°C° 0 mm 7 mps 728 mmHg 60%
    21:00 +17°C° 0 mm 7 mps 728 mmHg 61%
    22:00 +17°C° 0 mm 7 mps 728 mmHg 62%
    23:00 +16°C° 0 mm 7 mps 728 mmHg 63%

    30 March, Saturday

    Time Temperature Precipitation Wind Pressure Humidity
    00:00 +16°C° 0.2 mm 7 mps 728 mmHg 64%
    01:00 +15°C° 0.2 mm 8 mps 728 mmHg 65%
    02:00 +15°C° 0.2 mm 8 mps 729 mmHg 66%
    03:00 +15°C° 0.4 mm 9 mps 729 mmHg 64%
    04:00 +13°C° 0.4 mm 9 mps 730 mmHg 62%
    05:00 +13°C° 0.4 mm 10 mps 731 mmHg 60%
    06:00 +14°C° 0 mm 10 mps 732 mmHg 55%
    07:00 +14°C° 0 mm 10 mps 732 mmHg 51%
    08:00 +14°C° 0 mm 10 mps 733 mmHg 47%
    09:00 +17°C° 0 mm 9 mps 733 mmHg 41%
    10:00 +18°C° 0 mm 9 mps 734 mmHg 35%
    11:00 +21°C° 0 mm 8 mps 734 mmHg 29%
    12:00 +21°C° 0 mm 7 mps 734 mmHg 27%
    13:00 +22°C° 0 mm 7 mps 734 mmHg 26%
    14:00 +23°C° 0 mm 7 mps 734 mmHg 24%
    15:00 +22°C° 0 mm 6 mps 734 mmHg 25%
    16:00 +22°C° 0 mm 5 mps 734 mmHg 26%
    17:00 +22°C° 0 mm 5 mps 734 mmHg 27%
    18:00 +21°C° 0 mm 4 mps 735 mmHg 32%
    19:00 +20°C° 0 mm 3 mps 735 mmHg 37%
    20:00 +19°C° 0 mm 2 mps 736 mmHg 41%
    21:00 +18°C° 0 mm 2 mps 736 mmHg 45%
    22:00 +17°C° 0 mm 2 mps 736 mmHg 48%
    23:00 +17°C° 0 mm 2 mps 736 mmHg 51%

    31 March, Sunday

    Time Temperature Precipitation Wind Pressure Humidity
    00:00 +16°C° 0 mm 2 mps 735 mmHg 54%
    01:00 +16°C° 0 mm 1 mps 735 mmHg 56%
    02:00 +15°C° 0 mm 1 mps 735 mmHg 58%
    03:00 +15°C° 0 mm 1 mps 735 mmHg 60%
    04:00 +13°C° 0 mm 0 mps 735 mmHg 62%
    05:00 +13°C° 0 mm 0 mps 735 mmHg 64%
    06:00 +13°C° 0 mm 0 mps 735 mmHg 61%
    07:00 +14°C° 0 mm 0 mps 735 mmHg 58%
    08:00 +15°C° 0 mm 1 mps 735 mmHg 55%
    09:00 +18°C° 0 mm 1 mps 734 mmHg 49%
    10:00 +18°C° 0 mm 2 mps 734 mmHg 43%
    11:00 +19°C° 0 mm 2 mps 733 mmHg 37%
    12:00 +20°C° 0 mm 2 mps 733 mmHg 34%
    13:00 +21°C° 0 mm 2 mps 733 mmHg 31%
    14:00 +23°C° 0 mm 2 mps 733 mmHg 28%
    15:00 +22°C° 0 mm 4 mps 733 mmHg 28%
    16:00 +23°C° 0 mm 5 mps 733 mmHg 28%
    17:00 +23°C° 0 mm 7 mps 734 mmHg 28%
    18:00 +22°C° 0 mm 6 mps 734 mmHg 31%
    19:00 +21°C° 0 mm 6 mps 735 mmHg 35%
    20:00 +20°C° 0 mm 6 mps 736 mmHg 38%
    21:00 +19°C° 0 mm 6 mps 736 mmHg 42%
    22:00 +17°C° 0 mm 6 mps 736 mmHg 47%
    23:00 +16°C° 0 mm 7 mps 736 mmHg 51%
    Show more